Home > Time Zones > World Clock > Weather > Iran > Kerman > Past weeks

Flag for Iran Weather past 2 weeks in Kerman, Iran

Now
50 °F

Passing clouds.


Feels Like: 47 °F
Forecast: 36 / 62 °F
Wind: 7 mph from Northwest

Location: Kerman Airport

Current Time: Jan 27, 2015 at 10:29:37 PM

Latest Report: Jan 27, 2015 at 9:30 PM


Visibility: N/A

Pressure: 30.18 "Hg

Humidity: 40%

Dew point: 27 °F

Location of KermanLocation

Historic Weather in Kerman — Graph

°F

Kerman temperature yesterday

Maximum temperature yesterday: 59 °F (at 2:30 PM)
Minimum temperature yesterday: 23 °F (at 6:30 AM)
Average temperature yesterday: 42 °F

Past Weeks' High & Low Weather Summary

 TemperatureHumidityPressure
High73 °F (Jan 15, 4:30 PM)100% (Jan 18, 3:30 AM)30.45 "Hg (Jan 18, 3:30 AM)
Low14 °F (Jan 14, 7:00 AM)2% (Jan 15, 4:30 PM)29.92 "Hg (Jan 19, 3:30 PM)
Average40 °F50%30.22 "Hg
* Reported Jan 12 9:30 PM — Jan 27 9:30 PM, Kerman, Weather by CustomWeather, © 2014

Note: Actual official high and low records may vary slightly from our data, if they occured in-between our weather recording intervals... More about our weather records

Advertising

Kerman weather history for previous 24 hours

 ConditionsComfort  
Time TempWeatherWind HumidityBarometerVisibility
9:30 PM
Jan 27
50 °FPassing clouds.7 mph40%30.18 "HgN/A
8:30 PM52 °FPassing clouds.7 mph28%30.18 "HgN/A
7:30 PM52 °FPartly cloudy.9 mph32%30.18 "HgN/A
6:30 PM52 °FPartly cloudy.12 mph28%30.15 "HgN/A
4:30 PM57 °FBroken clouds.23 mph21%30.15 "HgN/A
4:00 PM59 °FBroken clouds.12 mph20%30.12 "HgN/A
3:30 PM59 °FBroken clouds.16 mph20%30.12 "HgN/A
2:30 PM59 °FBroken clouds.14 mph18%30.15 "HgN/A
2:00 PM59 °FBroken clouds.18 mph21%30.15 "HgN/A
1:30 PM59 °FBroken clouds.14 mph21%30.18 "HgN/A
1:00 PM59 °FBroken clouds.16 mph20%30.18 "HgN/A
12:30 PM57 °FBroken clouds.16 mph23%30.18 "HgN/A
12:00 PM57 °FPartly sunny.14 mph21%30.18 "HgN/A
11:30 AM55 °FPartly sunny.16 mph26%30.21 "HgN/A
11:00 AM57 °FPartly sunny.9 mph27%30.21 "HgN/A
10:30 AM54 °FPartly sunny.5 mph30%30.24 "HgN/A
10:00 AM52 °FPartly sunny.5 mph44%30.24 "HgN/A
9:30 AM46 °FPartly sunny.5 mph53%30.24 "HgN/A
9:00 AM43 °FPartly sunny.5 mph57%30.24 "HgN/A
8:30 AM39 °FPartly sunny.7 mph65%30.24 "HgN/A
7:20 AM36 °FPartly sunny.7 mph70%30.24 "HgN/A
6:20 AM34 °FPartly cloudy.5 mph75%30.21 "HgN/A
5:30 AM34 °FClear.No wind70%30.21 "Hg10 mi
4:30 AM36 °FClear.7 mph65%30.18 "Hg10 mi
3:30 AM34 °FClear.5 mph65%30.21 "Hg10 mi
2:30 AM32 °FClear.5 mph69%30.21 "Hg10 mi
1:30 AM32 °FClear.5 mph64%30.21 "Hg10 mi
12:30 AM34 °FClear.No wind60%30.24 "Hg10 mi
11:30 PM
Jan 26
36 °FClear.7 mph56%30.24 "Hg10 mi
10:30 PM37 °FClear.5 mph48%30.27 "Hg10 mi
Weather by CustomWeather, © 2014

See weather overviewHow to use our weather pages